Regional Weather Roundup
Issued by NWS Newport/Morehead, NC

Home | Current Version | Previous Version | Text Only | Print | Product List | Glossary On
Versions: 1 2 3 4 5 6 7 8 9 10 11 12 13 14 15 16 17 18 19 20 21 22 23 24 25 26 27 28 29 30 31 32 33 34 35 36 37 38 39 40 41 42 43 44 45 46 47 48 49 50
000
ASUS42 KMHX 280422
RWRMHX
WEATHER ROUNDUP FOR EASTERN NORTH CAROLINA
NATIONAL WEATHER SERVICE NEWPORT/MOREHEAD CITY NC
1200 AM EDT MON JUL 28 2014

NOTE: "FAIR" INDICATES FEW OR NO CLOUDS BELOW 12,000 FEET
WITH NO SIGNIFICANT WEATHER AND/OR OBSTRUCTIONS TO VISIBILITY

NCZ015>017-031-032-045>047-102-103-280500-
NORTH COAST

CITY           SKY/WX    TMP DP  RH WIND       PRES   REMARKS
EDENTON        MOCLDY    79  75  87 S7        29.78S
ELIZABETH CITY MOCLDY    77  73  87 S7        29.78F
KITTY HAWK     MOCLDY    79  74  85 SW6       29.78F
MANTEO         NOT AVBL

$$

NCZ045>047-081-094-103-104-280500-
CENTRAL COAST

CITY           SKY/WX    TMP DP  RH WIND       PRES   REMARKS
FRISCO         MOCLDY    81  79  94 SW15      29.82F
SWANQUARTER      N/A     82 N/A N/A SW14      29.77S

$$

NCZ095-097-098-100-101-280500-
SOUTHERN COAST

CITY           SKY/WX    TMP DP  RH WIND       PRES   REMARKS
BEAUFORT       CLOUDY    83  79  88 SW22G28     N/A
CEDAR ISLAND     N/A     81 N/A N/A S10G21    29.85S
JACKSONVILLE   CLOUDY    81  75  82 SW9       29.79F
NEWPORT        NOT AVBL
PINEY ISLAND   CLOUDY    83  79  88 SW14      29.81F
WILMINGTON     MOCLDY    83  79  88 SW12      29.83F


$$

NCZ011>013-027>030-043-044-078>080-089-090>093-098-280500-
COASTAL PLAIN

CITY           SKY/WX    TMP DP  RH WIND       PRES   REMARKS
AHOSKIE        MOCLDY    74  71  90 S5        29.77S
CLINTON        CLOUDY    83  74  74 SW8G16    29.80S
ELIZABETHTOWN  CLOUDY    84  72  67 SW10G17   29.82F
GOLDSBORO      CLOUDY    83  76  79 S10       29.75F
GREENVILLE     CLOUDY    81  73  78 SW8       29.81S
HAVELOCK       CLOUDY    82  75  79 SW8       29.81F
KENANSVILLE    CLOUDY    82  72  72 SW6       29.81R
KINSTON        CLOUDY    82  74  75 S7        29.79S
NEW BERN       CLOUDY    82  74  76 S9        29.80F
RICHLANDS      CLOUDY    81  73  78 SW13      29.81R
ROANOKE RAPIDS NOT AVBL
ROCKY MOUNT    CLOUDY    79  73  82 S6        29.77F
WASHINGTON     CLOUDY    79  74  83 S6        29.79S
WHITEVILLE     CLOUDY    82  74  77 SW7       29.85S

$$

AMZ130-135-150-152-154-156-158-170-250-252-270-ANZ085-086-088-633-658-670-280500-
MARINE OBSERVATIONS

STATION/POSITION TIME  TEMP    WIND        PRES    WAVE   SWELL
                       AIR SEA DIR/SP/G            HT/PER HT/PER
                 (UTC) (F)     (DEG/KT/KT) (MB)    (FT/S) (FT/S)
CHESAPEAKE LIGHT NOT AVBL
BUOY 44014       0400   79 78  210/ 14/ 16 1008.1    3/ 4   2/ 8
DUCK             0400   80 66  190/  8/ 12 1007.5
2E DUCK          0400                        N/A     1/11
OREGON INLET     0400   81 83  200/ 11/ 12 1008.9
BUOY 44095       0400      78                N/A     2/11
20E OREGON INLET NOT AVBL
HATTERAS CG      0400   81 83  230/ 12/ 16 1010.1
DIAMOND BUOY     0400          VRB 19/ 23  1009.7    4/ 5   2/10
CAPE LOOKOUT     0400   82     220/ 13/ 20 1010.0
BEAUFORT LAB     0400   82 83  220/ 11/ 19 1009.5
30 SE NEW RIVER  0400   82 81  230/ 19/ 25 1010.8    5/ 5   2/10
5 SE WRIGHTSVILL 0400   80 82  220/ 17/ 19   N/A
BUOY 41002       0251   81 81  240/ 17/ 21 1015.6    5/ 6   2/ 9
BUOY 41004       0400   85 84  220/ 19/ 23 1011.9    4/ 5   2/10

$$


USA.gov is the U.S. government's official web portal to all federal, state and local government web resources and services.